Time,TemperatureF,DewpointF,PressureIn,WindDirection,WindDirectionDegrees,WindSpeedMPH,WindSpeedGustMPH,Humidity,HourlyPrecipIn,Conditions,Clouds,dailyrainin,SoftwareType,DateUTC
2013-02-06 00:00:00,31.0,5.0,-100.00,North,-999,-999.0,-999.0,32,-99.99,,,-99.99,,2013-02-06 07:00:00,
2013-02-06 00:32:00,31.0,5.0,-100.00,North,-999,-999.0,-999.0,32,-99.99,,,-99.99,,2013-02-06 07:32:00,
2013-02-06 00:42:00,31.0,5.0,-100.00,North,-999,-999.0,-999.0,32,-99.99,,,-99.99,,2013-02-06 07:42:00,
2013-02-06 00:52:00,31.0,5.0,-100.00,North,-999,-999.0,-999.0,32,-99.99,,,-99.99,,2013-02-06 07:52:00,
2013-02-06 01:00:00,31.0,8.0,-100.00,North,-999,-999.0,-999.0,36,-99.99,,,-99.99,,2013-02-06 08:00:00,
2013-02-06 01:32:00,31.0,8.0,-100.00,North,-999,-999.0,-999.0,36,-99.99,,,-99.99,,2013-02-06 08:32:00,
2013-02-06 01:42:00,31.0,8.0,-100.00,North,-999,-999.0,-999.0,36,-99.99,,,-99.99,,2013-02-06 08:42:00,
2013-02-06 01:53:00,31.0,8.0,-100.00,North,-999,-999.0,-999.0,36,-99.99,,,-99.99,,2013-02-06 08:53:00,
2013-02-06 02:00:00,31.0,8.0,-100.00,North,-999,-999.0,-999.0,37,-99.99,,,-99.99,,2013-02-06 09:00:00,
2013-02-06 02:32:00,31.0,8.0,-100.00,North,-999,-999.0,-999.0,37,-99.99,,,-99.99,,2013-02-06 09:32:00,
2013-02-06 02:42:00,31.0,8.0,-100.00,North,-999,-999.0,-999.0,37,-99.99,,,-99.99,,2013-02-06 09:42:00,
2013-02-06 02:52:00,31.0,8.0,-100.00,North,-999,-999.0,-999.0,37,-99.99,,,-99.99,,2013-02-06 09:52:00,
2013-02-06 03:00:00,29.0,12.0,-100.00,North,-999,-999.0,-999.0,47,-99.99,,,-99.99,,2013-02-06 10:00:00,
2013-02-06 03:32:00,29.0,12.0,-100.00,North,-999,-999.0,-999.0,47,-99.99,,,-99.99,,2013-02-06 10:32:00,
2013-02-06 03:42:00,29.0,12.0,-100.00,North,-999,-999.0,-999.0,47,-99.99,,,-99.99,,2013-02-06 10:42:00,
2013-02-06 03:52:00,29.0,12.0,-100.00,North,-999,-999.0,-999.0,47,-99.99,,,-99.99,,2013-02-06 10:52:00,
2013-02-06 04:00:00,26.0,14.0,-100.00,North,-999,-999.0,-999.0,57,-99.99,,,-99.99,,2013-02-06 11:00:00,
2013-02-06 04:32:00,26.0,14.0,-100.00,North,-999,-999.0,-999.0,57,-99.99,,,-99.99,,2013-02-06 11:32:00,
2013-02-06 04:42:00,26.0,14.0,-100.00,North,-999,-999.0,-999.0,57,-99.99,,,-99.99,,2013-02-06 11:42:00,
2013-02-06 04:52:00,26.0,14.0,-100.00,North,-999,-999.0,-999.0,57,-99.99,,,-99.99,,2013-02-06 11:52:00,
2013-02-06 05:00:00,26.0,14.0,-100.00,North,-999,-999.0,-999.0,58,-99.99,,,-99.99,,2013-02-06 12:00:00,
2013-02-06 05:32:00,26.0,14.0,-100.00,North,-999,-999.0,-999.0,58,-99.99,,,-99.99,,2013-02-06 12:32:00,
2013-02-06 05:42:00,26.0,14.0,-100.00,North,-999,-999.0,-999.0,58,-99.99,,,-99.99,,2013-02-06 12:42:00,
2013-02-06 05:52:00,26.0,14.0,-100.00,North,-999,-999.0,-999.0,58,-99.99,,,-99.99,,2013-02-06 12:52:00,
2013-02-06 06:00:00,28.0,12.0,-100.00,North,-999,-999.0,-999.0,51,-99.99,,,-99.99,,2013-02-06 13:00:00,
2013-02-06 06:32:00,28.0,12.0,-100.00,North,-999,-999.0,-999.0,51,-99.99,,,-99.99,,2013-02-06 13:32:00,
2013-02-06 06:42:00,28.0,12.0,-100.00,North,-999,-999.0,-999.0,51,-99.99,,,-99.99,,2013-02-06 13:42:00,
2013-02-06 06:52:00,28.0,12.0,-100.00,North,-999,-999.0,-999.0,51,-99.99,,,-99.99,,2013-02-06 13:52:00,
2013-02-06 07:00:00,25.0,15.0,-100.00,North,-999,-999.0,-999.0,64,-99.99,,,-99.99,,2013-02-06 14:00:00,
2013-02-06 07:32:00,25.0,15.0,-100.00,North,-999,-999.0,-999.0,64,-99.99,,,-99.99,,2013-02-06 14:32:00,
2013-02-06 07:42:00,25.0,15.0,-100.00,North,-999,-999.0,-999.0,64,-99.99,,,-99.99,,2013-02-06 14:42:00,
2013-02-06 07:52:00,25.0,15.0,-100.00,North,-999,-999.0,-999.0,64,-99.99,,,-99.99,,2013-02-06 14:52:00,
2013-02-06 08:00:00,25.0,14.0,-100.00,North,-999,-999.0,-999.0,62,-99.99,,,-99.99,,2013-02-06 15:00:00,
2013-02-06 08:32:00,25.0,14.0,-100.00,North,-999,-999.0,-999.0,62,-99.99,,,-99.99,,2013-02-06 15:32:00,
2013-02-06 08:42:00,25.0,14.0,-100.00,North,-999,-999.0,-999.0,62,-99.99,,,-99.99,,2013-02-06 15:42:00,
2013-02-06 08:52:00,25.0,14.0,-100.00,North,-999,-999.0,-999.0,62,-99.99,,,-99.99,,2013-02-06 15:52:00,
2013-02-06 09:00:00,24.0,16.0,-100.00,North,-999,-999.0,-999.0,69,-99.99,,,-99.99,,2013-02-06 16:00:00,
2013-02-06 09:32:00,24.0,16.0,-100.00,North,-999,-999.0,-999.0,69,-99.99,,,-99.99,,2013-02-06 16:32:00,
2013-02-06 09:42:00,24.0,16.0,-100.00,North,-999,-999.0,-999.0,69,-99.99,,,-99.99,,2013-02-06 16:42:00,
2013-02-06 09:52:00,24.0,16.0,-100.00,North,-999,-999.0,-999.0,69,-99.99,,,-99.99,,2013-02-06 16:52:00,
2013-02-06 10:00:00,29.0,14.0,-100.00,North,-999,-999.0,-999.0,52,-99.99,,,-99.99,,2013-02-06 17:00:00,
2013-02-06 10:32:00,29.0,14.0,-100.00,North,-999,-999.0,-999.0,52,-99.99,,,-99.99,,2013-02-06 17:32:00,
2013-02-06 10:42:00,29.0,14.0,-100.00,North,-999,-999.0,-999.0,52,-99.99,,,-99.99,,2013-02-06 17:42:00,
2013-02-06 10:52:00,29.0,14.0,-100.00,North,-999,-999.0,-999.0,52,-99.99,,,-99.99,,2013-02-06 17:52:00,
2013-02-06 11:00:00,29.0,6.0,-100.00,North,-999,-999.0,-999.0,37,-99.99,,,-99.99,,2013-02-06 18:00:00,
2013-02-06 11:33:00,29.0,6.0,-100.00,North,-999,-999.0,-999.0,37,-99.99,,,-99.99,,2013-02-06 18:33:00,
2013-02-06 11:42:00,29.0,6.0,-100.00,North,-999,-999.0,-999.0,37,-99.99,,,-99.99,,2013-02-06 18:42:00,
2013-02-06 11:52:00,29.0,6.0,-100.00,North,-999,-999.0,-999.0,37,-99.99,,,-99.99,,2013-02-06 18:52:00,
2013-02-06 12:00:00,28.0,7.0,-100.00,North,-999,-999.0,-999.0,39,-99.99,,,-99.99,,2013-02-06 19:00:00,
2013-02-06 12:32:00,28.0,7.0,-100.00,North,-999,-999.0,-999.0,39,-99.99,,,-99.99,,2013-02-06 19:32:00,
2013-02-06 12:42:00,28.0,7.0,-100.00,North,-999,-999.0,-999.0,39,-99.99,,,-99.99,,2013-02-06 19:42:00,
2013-02-06 12:52:00,28.0,7.0,-100.00,North,-999,-999.0,-999.0,39,-99.99,,,-99.99,,2013-02-06 19:52:00,
2013-02-06 13:00:00,28.0,7.0,-100.00,North,-999,-999.0,-999.0,39,-99.99,,,-99.99,,2013-02-06 20:00:00,
2013-02-06 13:32:00,28.0,7.0,-100.00,North,-999,-999.0,-999.0,39,-99.99,,,-99.99,,2013-02-06 20:32:00,
2013-02-06 13:42:00,28.0,7.0,-100.00,North,-999,-999.0,-999.0,39,-99.99,,,-99.99,,2013-02-06 20:42:00,
2013-02-06 13:52:00,28.0,7.0,-100.00,North,-999,-999.0,-999.0,39,-99.99,,,-99.99,,2013-02-06 20:52:00,
2013-02-06 14:00:00,28.0,11.0,-100.00,North,-999,-999.0,-999.0,47,-99.99,,,-99.99,,2013-02-06 21:00:00,
2013-02-06 14:32:00,28.0,11.0,-100.00,North,-999,-999.0,-999.0,47,-99.99,,,-99.99,,2013-02-06 21:32:00,
2013-02-06 14:42:00,28.0,11.0,-100.00,North,-999,-999.0,-999.0,47,-99.99,,,-99.99,,2013-02-06 21:42:00,
2013-02-06 14:52:00,28.0,11.0,-100.00,North,-999,-999.0,-999.0,47,-99.99,,,-99.99,,2013-02-06 21:52:00,
2013-02-06 15:00:00,27.0,6.0,-100.00,North,-999,-999.0,-999.0,39,-99.99,,,-99.99,,2013-02-06 22:00:00,
2013-02-06 15:32:00,27.0,6.0,-100.00,North,-999,-999.0,-999.0,39,-99.99,,,-99.99,,2013-02-06 22:32:00,
2013-02-06 15:42:00,27.0,6.0,-100.00,North,-999,-999.0,-999.0,39,-99.99,,,-99.99,,2013-02-06 22:42:00,
2013-02-06 15:52:00,27.0,6.0,-100.00,North,-999,-999.0,-999.0,39,-99.99,,,-99.99,,2013-02-06 22:52:00,
2013-02-06 16:00:00,23.0,12.0,-100.00,North,-999,-999.0,-999.0,62,-99.99,,,-99.99,,2013-02-06 23:00:00,
2013-02-06 16:32:00,23.0,12.0,-100.00,North,-999,-999.0,-999.0,62,-99.99,,,-99.99,,2013-02-06 23:32:00,
2013-02-06 16:42:00,23.0,12.0,-100.00,North,-999,-999.0,-999.0,62,-99.99,,,-99.99,,2013-02-06 23:42:00,
2013-02-06 16:52:00,23.0,12.0,-100.00,North,-999,-999.0,-999.0,62,-99.99,,,-99.99,,2013-02-06 23:52:00,
2013-02-06 17:00:00,18.0,10.0,-100.00,North,-999,-999.0,-999.0,68,-99.99,,,-99.99,,2013-02-07 00:00:00,
2013-02-06 17:32:00,18.0,10.0,-100.00,North,-999,-999.0,-999.0,68,-99.99,,,-99.99,,2013-02-07 00:32:00,
2013-02-06 17:42:00,18.0,10.0,-100.00,North,-999,-999.0,-999.0,68,-99.99,,,-99.99,,2013-02-07 00:42:00,
2013-02-06 17:52:00,18.0,10.0,-100.00,North,-999,-999.0,-999.0,68,-99.99,,,-99.99,,2013-02-07 00:52:00,
2013-02-06 18:00:00,19.0,11.0,-100.00,North,-999,-999.0,-999.0,69,-99.99,,,-99.99,,2013-02-07 01:00:00,
2013-02-06 18:32:00,19.0,11.0,-100.00,North,-999,-999.0,-999.0,69,-99.99,,,-99.99,,2013-02-07 01:32:00,
2013-02-06 18:42:00,19.0,11.0,-100.00,North,-999,-999.0,-999.0,69,-99.99,,,-99.99,,2013-02-07 01:42:00,
2013-02-06 18:52:00,19.0,11.0,-100.00,North,-999,-999.0,-999.0,69,-99.99,,,-99.99,,2013-02-07 01:52:00,
2013-02-06 19:00:00,15.0,10.0,-100.00,North,-999,-999.0,-999.0,79,-99.99,,,-99.99,,2013-02-07 02:00:00,
2013-02-06 19:32:00,15.0,10.0,-100.00,North,-999,-999.0,-999.0,79,-99.99,,,-99.99,,2013-02-07 02:32:00,
2013-02-06 19:42:00,15.0,10.0,-100.00,North,-999,-999.0,-999.0,79,-99.99,,,-99.99,,2013-02-07 02:42:00,
2013-02-06 19:52:00,15.0,10.0,-100.00,North,-999,-999.0,-999.0,79,-99.99,,,-99.99,,2013-02-07 02:52:00,
2013-02-06 20:00:00,15.0,9.0,-100.00,North,-999,-999.0,-999.0,75,-99.99,,,-99.99,,2013-02-07 03:00:00,
2013-02-06 20:32:00,15.0,9.0,-100.00,North,-999,-999.0,-999.0,75,-99.99,,,-99.99,,2013-02-07 03:32:00,
2013-02-06 20:42:00,15.0,9.0,-100.00,North,-999,-999.0,-999.0,75,-99.99,,,-99.99,,2013-02-07 03:42:00,
2013-02-06 20:52:00,15.0,9.0,-100.00,North,-999,-999.0,-999.0,75,-99.99,,,-99.99,,2013-02-07 03:52:00,
2013-02-06 21:00:00,15.0,0.0,-100.00,North,-999,-999.0,-999.0,48,-99.99,,,-99.99,,2013-02-07 04:00:00,
2013-02-06 21:32:00,15.0,0.0,-100.00,North,-999,-999.0,-999.0,48,-99.99,,,-99.99,,2013-02-07 04:32:00,
2013-02-06 21:42:00,15.0,0.0,-100.00,North,-999,-999.0,-999.0,48,-99.99,,,-99.99,,2013-02-07 04:42:00,
2013-02-06 21:53:00,15.0,0.0,-100.00,North,-999,-999.0,-999.0,48,-99.99,,,-99.99,,2013-02-07 04:53:00,
2013-02-06 22:00:00,17.0,-9.0,-100.00,North,-999,-999.0,-999.0,30,-99.99,,,-99.99,,2013-02-07 05:00:00,
2013-02-06 22:32:00,17.0,-9.0,-100.00,North,-999,-999.0,-999.0,30,-99.99,,,-99.99,,2013-02-07 05:32:00,
2013-02-06 22:42:00,17.0,-9.0,-100.00,North,-999,-999.0,-999.0,30,-99.99,,,-99.99,,2013-02-07 05:42:00,
2013-02-06 22:52:00,17.0,-9.0,-100.00,North,-999,-999.0,-999.0,30,-99.99,,,-99.99,,2013-02-07 05:52:00,
2013-02-06 23:00:00,15.0,-10.0,-100.00,North,-999,-999.0,-999.0,29,-99.99,,,-99.99,,2013-02-07 06:00:00,
2013-02-06 23:32:00,15.0,-10.0,-100.00,North,-999,-999.0,-999.0,29,-99.99,,,-99.99,,2013-02-07 06:32:00,
2013-02-06 23:43:00,15.0,-10.0,-100.00,North,-999,-999.0,-999.0,29,-99.99,,,-99.99,,2013-02-07 06:43:00,
2013-02-06 23:52:00,15.0,-10.0,-100.00,North,-999,-999.0,-999.0,29,-99.99,,,-99.99,,2013-02-07 06:52:00,